[[{"header":{"parameterUnit":"m.s-1","parameterCategory":1,"la1":30.2992,"la2":30.254,"lo1":-89.0895,"lo2":-89.0443,"dy":0.0025,"dx":0.0025,"nx":19,"ny":19,"refTime":"2026-03-23T09:00:00:Z","depth":0,"parameterNumber":2,"parameterNumberName":"U-component_of_WINDS"},"data":[0,0,0,2.9459,2.9462,2.9629,2.9629,2.9847,2.9849,0,0,0,0,0,0,0,0,0,0,0,2.9411,2.9412,2.9458,2.9463,2.9628,2.9629,2.9847,2.9849,0,0,0,0,0,0,0,0,0,0,0,2.941,2.9412,2.9414,2.9463,2.9628,2.9629,2.9846,2.9719,0,0,0,0,0,0,0,0,0,0,2.9557,2.9514,2.9411,2.9414,2.9464,2.9628,2.9629,2.9713,2.9727,2.9773,0,2.9813,0,2.9834,2.9864,2.9864,0,0,0,2.9462,2.9502,2.9545,2.9414,2.9466,2.9628,2.9554,2.9721,2.9737,2.9792,2.9816,2.9824,2.9838,2.9865,2.9866,3.0126,3.0127,0,0,2.9453,2.9442,2.9534,2.9556,2.9528,2.9548,2.9559,2.9731,2.9757,2.9817,2.9829,2.9841,2.9866,2.9868,3.0125,3.0127,0,0,0,2.9427,2.9435,2.9475,2.9547,2.9576,2.9553,2.9565,2.9749,2.9763,2.9831,2.9844,2.9868,2.987,3.0124,3.0126,3.0174,0,0,0,2.9421,2.942,2.9471,2.9465,2.9573,2.9664,2.958,2.9751,2.977,2.9843,2.9868,2.9873,3.0123,3.0125,3.0169,3.0198,0,0,0,2.94,2.9418,2.9442,2.9464,2.9535,2.9662,2.9685,2.9755,2.9778,2.9865,2.9873,3.0122,3.0124,3.0166,3.0192,3.0262,0,0,0,2.9374,2.9484,2.9442,2.9571,2.9534,2.969,2.9684,2.9802,2.9882,2.9869,3.0123,3.0126,3.0164,3.0188,3.0258,3.0318,3.0342,0,0,2.9507,2.95,2.9576,2.9544,2.9704,2.9665,2.9834,2.9919,2.9939,3.0063,3.007,3.0171,3.0192,3.0261,3.0483,3.0502,0,0,0,2.9615,2.9669,2.9714,2.9788,2.9854,2.9913,2.9973,3.0005,3.011,3.0,3.0216,3.0229,3.027,3.0299,3.0315,3.0351,3.0139,3.0138,3.0138,2.9787,2.9805,2.9932,2.9969,3.0041,3.0101,3.0162,3.0214,3.0213,3.0264,3.0301,3.0433,3.0466,3.0478,3.0515,3.0335,3.0335,3.0335,3.0335,2.9983,3.0063,3.0056,3.0177,3.0195,3.0298,3.036,3.0355,3.0454,3.0407,3.0444,3.039,3.0499,3.0532,3.0339,3.0338,3.0338,3.0338,3.0337,3.0097,3.0138,3.0173,3.028,3.0362,3.0397,3.0491,3.0506,3.052,3.0557,3.0597,3.0596,3.0596,3.0575,3.0576,3.0576,3.0576,3.0577,3.0577,3.02,3.0238,3.0315,3.0393,3.0441,3.0508,3.0569,3.0618,3.0676,3.0679,3.068,3.0672,3.0506,3.0463,3.0584,3.0583,3.0582,3.0581,3.0581,3.039,3.0349,3.0467,3.0515,3.0608,3.0688,3.0705,3.0803,3.0846,3.0892,3.0877,3.0752,3.0747,3.0734,3.0699,3.0873,3.0873,3.0873,3.0873,3.0484,3.0483,3.0606,3.0682,3.0759,3.0786,3.092,3.0969,3.1013,3.1041,3.1018,3.0973,3.0959,3.0962,3.0944,3.0911,3.1136,3.1136,3.1137,3.0601,3.0607,3.0717,3.0758,3.0831,3.0895,3.1021,3.111,3.1153,3.1148,3.1063,3.1052,3.0979,3.0954,3.0946,3.0918,3.0858,0,0]},{"header":{"parameterUnit":"m.s-1","parameterCategory":1,"la1":30.2992,"la2":30.254,"lo1":-89.0895,"lo2":-89.0443,"dy":0.0025,"dx":0.0025,"nx":19,"ny":19,"refTime":"2026-03-23T09:00:00:Z","depth":0,"parameterNumber":3,"parameterNumberName":"V-component_of_WINDS"},"data":[0,0,0,1.841,1.8414,1.857,1.8571,1.8766,1.8768,0,0,0,0,0,0,0,0,0,0,0,1.8361,1.8362,1.841,1.8414,1.857,1.8571,1.8766,1.8768,0,0,0,0,0,0,0,0,0,0,0,1.836,1.8362,1.8363,1.8415,1.857,1.8571,1.8765,1.8649,0,0,0,0,0,0,0,0,0,0,1.8498,1.8449,1.8362,1.8363,1.8415,1.857,1.8571,1.8644,1.8656,1.8693,0,1.8725,0,1.8749,1.8781,1.8781,0,0,0,1.8417,1.8439,1.8484,1.8364,1.8417,1.857,1.85,1.8651,1.8665,1.871,1.8727,1.8735,1.8752,1.8782,1.8783,1.8984,1.8985,0,0,1.8408,1.8388,1.8474,1.8493,1.8468,1.8495,1.8505,1.866,1.8678,1.8728,1.8739,1.8756,1.8783,1.8785,1.8984,1.8985,0,0,0,1.8381,1.8382,1.8423,1.8485,1.8513,1.85,1.8511,1.8671,1.8686,1.8742,1.8758,1.8784,1.8786,1.8983,1.8984,1.9005,0,0,0,1.8376,1.8366,1.8419,1.8408,1.851,1.8594,1.8519,1.8675,1.8693,1.8757,1.8784,1.8788,1.8982,1.8984,1.9003,1.9019,0,0,0,1.8352,1.8363,1.8385,1.8407,1.8473,1.8592,1.8616,1.8679,1.8703,1.8781,1.8789,1.8981,1.8983,1.9001,1.9016,1.9067,0,0,0,1.832,1.8402,1.8385,1.8482,1.8472,1.8603,1.8615,1.8714,1.8784,1.8785,1.8982,1.8984,1.9,1.9013,1.9064,1.9106,1.9122,0,0,1.8412,1.8412,1.8471,1.846,1.859,1.8581,1.8714,1.8797,1.8824,1.8929,1.8935,1.9004,1.9015,1.9066,1.9214,1.9226,0,0,0,1.8493,1.8535,1.8574,1.8639,1.8704,1.8761,1.8826,1.8856,1.8947,1.8874,1.9036,1.9044,1.9074,1.9096,1.9106,1.9134,1.8993,1.8992,1.8992,1.8595,1.8623,1.8722,1.8769,1.8832,1.8897,1.8951,1.9004,1.9014,1.9052,1.9084,1.9171,1.9195,1.9203,1.9231,1.9108,1.9108,1.9108,1.9108,1.8732,1.8797,1.8808,1.8908,1.8937,1.9022,1.9088,1.9092,1.9176,1.9149,1.9177,1.9146,1.9215,1.9241,1.911,1.911,1.911,1.9109,1.9109,1.8803,1.8838,1.8874,1.897,1.9041,1.9085,1.9165,1.9189,1.9212,1.924,1.9276,1.9276,1.9279,1.9255,1.9255,1.9256,1.9256,1.9256,1.9256,1.8862,1.8901,1.8965,1.904,1.9084,1.9146,1.9211,1.9256,1.9312,1.9323,1.9323,1.933,1.9216,1.9187,1.9261,1.926,1.926,1.9259,1.9259,1.8993,1.8967,1.9065,1.911,1.9199,1.9268,1.9297,1.9386,1.9426,1.9464,1.9465,1.9376,1.9378,1.937,1.9347,1.9458,1.9458,1.9458,1.9458,1.9053,1.9056,1.9162,1.9231,1.9302,1.9337,1.9448,1.9499,1.9549,1.9575,1.9562,1.9533,1.9523,1.9531,1.952,1.9498,1.9646,1.9646,1.9646,1.9135,1.9146,1.9235,1.9282,1.9354,1.9415,1.952,1.9599,1.9649,1.9654,1.9597,1.9589,1.9541,1.9524,1.9529,1.951,1.9471,0,0]}]]